logo tempoitalia

Diretta Meteo Budapest-Ferihegy, Ungheriamercoledì 15 luglio ore 07:30

Mappa
Sereno 18 °C Sereno 24 Ore: T.min 10 T.max 24
Ponente Nord Km/h 0 Punto di rugiada: 12 °C Umidità: 67% Visibilità: 10 Km
Il sole sorge alle: 05:00 Il sole tramonta alle: 20:37
15 Luglio 2020 07:30 tempo osservato: Sereno Sereno 18 67 1015 vento: Nord N 0
15 Luglio 2020 07:00 tempo osservato: Sereno Sereno 15 82 1015 vento: Nord N 0
15 Luglio 2020 06:00 tempo osservato: Sereno Sereno 11 87 1015 vento: Nord N 5.5
15 Luglio 2020 05:30 tempo osservato: Sereno Sereno 10 93 1015 vento: Nord N 5.5
15 Luglio 2020 05:00 tempo osservato: Sereno Sereno 10 93 1015 vento: Nord N 0
15 Luglio 2020 04:30 tempo osservato: Sereno Sereno 10 93 1015 vento: Nord N 0
15 Luglio 2020 04:00 tempo osservato: Sereno Sereno 10 93 1015 vento: Nord N 1.8
15 Luglio 2020 03:30 tempo osservato: Sereno Sereno 11 93 1015 vento: Nord N 1.8
15 Luglio 2020 03:00 tempo osservato: Sereno Sereno 11 93 1015 vento: Nord N 1.8
15 Luglio 2020 02:30 tempo osservato: Sereno Sereno 10 93 1015 vento: Nord N 3.7
15 Luglio 2020 01:30 tempo osservato: Sereno Sereno 11 93 1016 vento: Nord N 3.7
15 Luglio 2020 01:00 tempo osservato: Sereno Sereno 12 87 1016 vento: Nord N 3.7
15 Luglio 2020 00:30 tempo osservato: Sereno Sereno 12 87 1016 vento: Nord N 3.7
14 Luglio 2020 23:30 tempo osservato: Sereno Sereno 13 81 1016 vento: Nord N 3.7
14 Luglio 2020 23:00 tempo osservato: Sereno Sereno 13 87 1016 vento: Nord N 0
14 Luglio 2020 22:30 tempo osservato: Sereno Sereno 14 82 1015 vento: Nord N 0
14 Luglio 2020 22:00 tempo osservato: Sereno Sereno 15 76 1015 vento: Nord N 0
14 Luglio 2020 21:00 tempo osservato: Sereno Sereno 17 63 1015 vento: Nord E 7.4
14 Luglio 2020 20:30 tempo osservato: Sereno Sereno 21 40 1015 vento: Nord E/NE 9.3
14 Luglio 2020 20:00 tempo osservato: Sereno Sereno 21 46 1015 vento: Nord E/SE 7.4
14 Luglio 2020 19:30 tempo osservato: Sereno Sereno 21 56 1015 vento: Nord N 3.7
14 Luglio 2020 19:00 tempo osservato: Sereno Sereno 20 52 1016 vento: Nord N 3.7
14 Luglio 2020 18:00 tempo osservato: Sereno Sereno 24 33 1016 vento: Nord N 7.4
14 Luglio 2020 17:30 tempo osservato: Sereno Sereno 24 33 1016 vento: Nord N 3.7
14 Luglio 2020 17:00 tempo osservato: Sereno Sereno 22 40 1016 vento: Nord E 9.3
14 Luglio 2020 16:30 tempo osservato: Sereno Sereno 23 35 1016 vento: Nord E/SE 9.3
14 Luglio 2020 16:00 tempo osservato: Sereno Sereno 22 43 1016 vento: Nord E 13
14 Luglio 2020 15:30 tempo osservato: Sereno Sereno 23 38 1017 vento: Nord N 3.7
14 Luglio 2020 15:00 tempo osservato: Sereno Sereno 23 35 1017 vento: Nord N 7.4
14 Luglio 2020 14:30 tempo osservato: Sereno Sereno 22 37 1017 vento: Nord E/SE 9.3
14 Luglio 2020 13:30 tempo osservato: Sereno Sereno 23 35 1018 vento: Nord E/NE 11.1
14 Luglio 2020 13:00 tempo osservato: Sereno Sereno 22 37 1018 vento: Nord N 7.4
14 Luglio 2020 12:30 tempo osservato: Sereno Sereno 22 43 1018 vento: Nord N 7.4
14 Luglio 2020 12:00 tempo osservato: Sereno Sereno 21 43 1018 vento: Nord N 9.3
14 Luglio 2020 11:30 tempo osservato: Sereno Sereno 21 49 1018 vento: Nord E/SE 9.3
14 Luglio 2020 11:00 tempo osservato: Sereno Sereno 20 52 1019 vento: Nord E/SE 11.1
14 Luglio 2020 10:30 tempo osservato: Sereno Sereno 20 49 1019 vento: Nord E 13
14 Luglio 2020 10:00 tempo osservato: Sereno Sereno 19 52 1019 vento: Nord E/SE 13
14 Luglio 2020 09:30 tempo osservato: Sereno Sereno 19 52 1019 vento: Nord E 14.8
14 Luglio 2020 09:00 tempo osservato: Sereno Sereno 19 52 1019 vento: Nord E 13
14 Luglio 2020 08:30 tempo osservato: Sereno Sereno 18 59 1019 vento: Nord E 14.8
14 Luglio 2020 08:00 tempo osservato: Sereno Sereno 18 59 1019 vento: Nord E 14.8